Location: Newark
(44.3100°N, 0.7769°W)
Time: 16:54:26
(UTC+00:00)

Envisat - Pass Details

Date: 27 November 2019
Orbit: 764 x 766 km, 98.1° (Epoch: 12 December)

Event Time Altitude Azimuth Distance (km) Brightness Sun altitude
Rises 06:02:29 0° 24° (NNE) 3,241 6.3 -12.5°
Reaches altitude 10° 06:05:08 10° 36° (NE) 2,309 5.7 -12.1°
Maximum altitude 06:09:26 27° 94° (E) 1,438 5.3 -11.3°
Drops below altitude 10° 06:13:42 10° 152° (SSE) 2,295 6.2 -10.6°
Sets 06:16:19 0° 164° (SSE) 3,216 6.8 -10.2°
